Regional Weather Roundup
Issued by NWS Charleston, SC

Home | Current Version | Previous Version | Text Only | Print | Product List | Glossary On
Versions: 1 2 3 4 5 6 7 8 9 10 11 12 13 14 15 16 17 18 19 20 21 22 23 24 25 26 27 28 29 30 31 32 33 34 35 36 37 38 39 40 41 42 43 44 45 46 47 48 49 50
000
ASUS42 KCHS 280727
RWRCHS

REGIONAL WEATHER ROUNDUP
NATIONAL WEATHER SERVICE CHARLESTON SC
300 AM EDT FRI JUL 28 2017

NOTE: "FAIR" INDICATES FEW OR NO CLOUDS BELOW 12,000 FEET WITH NO
SIGNIFICANT WEATHER AND/OR OBSTRUCTIONS TO VISIBILITY.

NOT ALL STATIONS ARE QUALITY CONTROLLED. USE DATA WITH CAUTION...
ESPECIALLY DEWPOINT OBSERVATIONS.

SCZ027-030-031-034>040-042>050-280800-
...SOUTHEAST SOUTH CAROLINA...

CITY           SKY/WX    TMP DP  RH WIND       PRES   REMARKS
N CHARLESTON   PTCLDY    77  74  90 S3        29.90F
WATERFRONT PRK   N/A     81  77  88 SW5       29.89F
JOHNS ISLAND   FAIR      79  77  94 S6        29.90F
PINOPOLIS        N/A     77  75  94 CALM      29.84F
MONCKS CORNER  FAIR      72  72 100 CALM      29.91S
SUMMERVILLE    FAIR      73  72  94 CALM      29.92S
BEAUFORT MCAS  CLEAR     77  76  96 W5        29.90F
BEAUFORT ARPT  FAIR      77  73  88 CALM      29.89F
HILTON HEAD IS PTCLDY    77  77 100 CALM      29.90F
WALTERBORO     NOT AVBL
ALLENDALE      NOT AVBL

...SOUTHERN MIDLANDS AND PEE DEE...

CITY           SKY/WX    TMP DP  RH WIND       PRES   REMARKS
GEORGETOWN     FAIR      73  72  94 CALM      29.91F
KINGSTREE      FAIR      72  70  94 CALM      29.91F FOG
ORANGEBURG     PTCLDY    74  72  93 CALM      29.92F
BARNWELL       FAIR      75  75 100 CALM      29.91F
AIKEN          FAIR      73  73 100 S3        29.95F
MANNING        FAIR      77  72  83 SW5       29.91F
COLUMBIA       MOCLDY    78  73  84 S5        29.90F
SUMTER         CLOUDY    76  73  91 S6        29.89F
FLORENCE       PTCLDY    75  75 100 S5        29.91F
MYRTLE BEACH   NOT AVBL
N MYRTLE BEACH PTCLDY    79  75  87 SW5       29.91F

$$

GAZ063-065-086>088-099>101-113>116-118-119-134>141-150-280800-
...SOUTHEAST GEORGIA...

CITY           SKY/WX    TMP DP  RH WIND       PRES   REMARKS
SAVANNAH ARPT  PTCLDY    76  74  93 SW3       29.91F
HUNTER AAF     MOCLDY    76  75  97 W5        29.88F
FORT STEWART   CLOUDY    75  75 100 CALM      29.88F FOG
STATESBORO     CLEAR     74  74 100 CALM      29.90F FOG
SYLVANIA       CLOUDY    74  74 100 CALM      29.92F FOG
CLAXTON        FAIR      74  73  98 CALM      29.91F

...CSRA...CENTRAL AND FAR SOUTHEAST GEORGIA...

CITY           SKY/WX    TMP DP  RH WIND       PRES   REMARKS
THOMSON        MOCLDY    76  74  93 CALM      29.97F
AUGUSTA-BUSH   CLOUDY    78  75  90 CALM      29.91F
AUGUSTA-DANIEL PTCLDY    79  72  79 S5        29.93F
SWAINSBORO     FAIR      73  73 100 CALM      29.93F
VIDALIA        CLEAR     77  73  88 CALM      29.92S
EASTMAN        FAIR      76  76 100 CALM      29.94F
HAZLEHURST     FAIR      78  78 100 CALM      29.90F
ALMA           CLOUDY    77  75  93 CALM      29.91F
WAYCROSS       PTCLDY    79  79 100 CALM      29.91F
JESUP          NOT AVBL
BAXLEY         FAIR      77  77 100 CALM      29.91F
BRUNSWICK      CLOUDY    75  75 100 SW3       29.91F
SAINT SIMONS   MOCLDY    78  76  93 W6        29.90F

$$

SCZ027-028-034-036>038-045-046-048>050-GAZ119-141-280800-
...LAKE AND SUPPLEMENTAL COASTAL OBSERVATIONS...

STATION/POSITION TIME  TEMP    WIND        PRES    WAVE   SWELL
                       AIR SEA DIR/SP/G            HT/PER HT/PER/DIR
                 (UTC) (F)     (DEG/KT/KT) (MB)    (FT/S) (FT/S/D)
WINYAH BAY       0645   79     250/  3     1013.0S
LAKE MURRAY      0720   79     200/ 10/ 13 1011.5
ACE BASIN NERRS  0645   79        CALM     1013.0F
FORT PULASKI     0700   79 84  280/  4/  5 1012.7
SAPELO ISLAND    0700   78     250/  5     1013.0

$$

ANZ835-935-AMZ111-154-330-350-352-354-370-450-454-472-280800-
...C-MAN AND BUOY OBSERVATIONS...

STATION/POSITION TIME  TEMP    WIND        PRES    WAVE   SWELL
                       AIR SEA DIR/SP/G            HT/PER HT/PER/DIR
                 (UTC) (F)     (DEG/KT/KT) (MB)    (FT/S) (FT/S/D)
BUOY 41004       0700   79 81  210/  4/  6 1012.5
BUOY 41008       0650   80 81  240/ 10/ 12 1012.1F   2/ 8   2/100/ 8
FOLLY BEACH CMAN 0700   81     200/ 10/ 12 1013.2F
CAPERS NEARSHORE 0708   79 84  220/ 10/ 14 1012.4F
FRIPP NEARSHORE  0708   81 84  210/ 10/ 12 1011.8F


STATION/POSITION TIME  TEMP    WIND        PRES    WAVE   SWELL
                       AIR SEA DIR/SP/G            HT/PER HT/PER/DIR
                 (UTC) (F)     (DEG/KT/KT) (MB)    (FT/S) (FT/S/D)
5E ST. MARYS GA  0700      79                N/A     2/ 8
FRYING PAN BUOY  0700   82 82  240/ 10/ 12 1013.0
BUOY 41025       0650   81 83  210/ 19/ 21 1012.7F   3/ 4   2/ 70/ 8
CAPE LOOKOUT NC  0700   80     190/ 12/ 14 1012.4F
BUOY 41002       0650   82 83  260/ 10/ 12 1014.7F   3/ 8   2/ 50/ 8
BUOY 41010       0700   84 85  170/ 14/ 17 1014.0
ST AUGUSTINE FL  0700   77 76  220/  7/  9 1013.3F


$$



USA.gov is the U.S. government's official web portal to all federal, state and local government web resources and services.